| time (UTC) | temp C | wind direction | speed KPH | gust KPH | rain 1hr cm | rain 24hr cm | rain mn cm | humidity % | barometer mb |
| 20260506004629 | 15 | 199 | 11.3 | 32.2 | 0.08 | 1.17 | 1.17 | 92 | 1007.5 |
| 20260506004059 | 15 | 190 | 6.4 | 19.3 | 0.05 | 1.14 | 1.14 | 92 | 1007.5 |
| 20260506003559 | 15 | 211 | 8.0 | 20.9 | 0.05 | 1.14 | 1.14 | 92 | 1007.5 |
| 20260506003100 | 15 | 195 | 9.7 | 20.9 | 0.05 | 1.14 | 1.14 | 92 | 1007.5 |
| 20260506002559 | 15 | 0 | 4.8 | 14.5 | 0.08 | 1.14 | 1.14 | 93 | 1007.5 |
| 20260506002059 | 15 | 180 | 6.4 | 14.5 | 0.10 | 1.14 | 1.14 | 93 | 1007.4 |
| 20260506001601 | 15 | 221 | 4.8 | 14.5 | 0.08 | 1.12 | 1.12 | 93 | 1007.5 |
| 20260506001058 | 15 | 185 | 6.4 | 19.3 | 0.10 | 1.12 | 1.12 | 93 | 1007.5 |
| 20260506000559 | 15 | 198 | 6.4 | 19.3 | 0.10 | 1.12 | 1.12 | 93 | 1007.5 |
| 20260506000057 | 15 | 233 | 6.4 | 12.9 | 0.08 | 1.09 | 1.09 | 93 | 1007.5 |
| 20260505235558 | 15 | 201 | 6.4 | 14.5 | 0.13 | 1.09 | 1.09 | 93 | 1007.5 |
| 20260505235059 | 15 | 209 | 6.4 | 16.1 | 0.18 | 1.09 | 1.09 | 93 | 1007.6 |
| 20260505234615 | 15 | 217 | 6.4 | 16.1 | 0.18 | 1.09 | 1.09 | 93 | 1007.4 |
| 20260505234055 | 15 | 228 | 6.4 | 17.7 | 0.20 | 1.09 | 1.09 | 93 | 1007.6 |
| 20260505233559 | 15 | 250 | 8.0 | 17.7 | 0.20 | 1.09 | 1.09 | 93 | 1007.7 |
| 20260505233057 | 15 | 189 | 4.8 | 11.3 | 0.20 | 1.09 | 1.09 | 93 | 1007.7 |
| 20260505232556 | 15 | 229 | 6.4 | 11.3 | 0.18 | 1.07 | 1.07 | 93 | 1007.7 |
| 20260505232056 | 15 | 205 | 4.8 | 12.9 | 0.15 | 1.04 | 1.04 | 93 | 1007.7 |
| 20260505231600 | 15 | 223 | 4.8 | 12.9 | 0.15 | 1.04 | 1.04 | 92 | 1007.9 |
| 20260505231056 | 15 | 238 | 3.2 | 14.5 | 0.13 | 1.02 | 1.02 | 92 | 1008.0 |
| 20260505230559 | 15 | 214 | 3.2 | 14.5 | 0.13 | 1.02 | 1.02 | 92 | 1007.9 |
| 20260505230058 | 15 | 229 | 4.8 | 12.9 | 0.13 | 1.02 | 1.02 | 92 | 1008.1 |
| 20260505225559 | 15 | 231 | 4.8 | 11.3 | 0.10 | 0.97 | 0.97 | 92 | 1008.1 |
| 20260505225056 | 15 | 218 | 4.8 | 12.9 | 0.05 | 0.91 | 0.91 | 92 | 1008.1 |
| 20260505224559 | 15 | 246 | 4.8 | 14.5 | 0.05 | 0.91 | 0.91 | 92 | 1008.0 |
| 20260505224058 | 15 | 215 | 6.4 | 14.5 | 0.03 | 0.89 | 0.89 | 92 | 1008.1 |
| 20260505223555 | 15 | 255 | 4.8 | 14.5 | 0.03 | 0.89 | 0.89 | 92 | 1008.1 |
| 20260505223105 | 15 | 235 | 4.8 | 11.3 | 0.05 | 0.89 | 0.89 | 92 | 1008.1 |
| 20260505222556 | 15 | 232 | 4.8 | 12.9 | 0.05 | 0.89 | 0.89 | 92 | 1008.0 |
| 20260505222057 | 15 | 217 | 4.8 | 12.9 | 0.05 | 0.89 | 0.89 | 92 | 1008.1 |
| 20260505221608 | 15 | 242 | 4.8 | 14.5 | 0.08 | 0.89 | 0.89 | 91 | 1008.2 |
| 20260505221056 | 15 | 211 | 4.8 | 14.5 | 0.08 | 0.89 | 0.89 | 91 | 1008.2 |
| 20260505220600 | 15 | 236 | 6.4 | 19.3 | 0.13 | 0.89 | 0.89 | 91 | 1008.2 |
| 20260505220138 | 15 | 233 | 6.4 | 19.3 | 0.20 | 0.89 | 0.89 | 91 | 1008.1 |
| 20260505215557 | 15 | 244 | 6.4 | 16.1 | 0.20 | 0.86 | 0.86 | 91 | 1008.1 |
| 20260505215056 | 15 | 261 | 6.4 | 17.7 | 0.28 | 0.86 | 0.86 | 91 | 1008.2 |
| 20260505214618 | 15 | 239 | 6.4 | 17.7 | 0.86 | 0.86 | 0.86 | 91 | 1008.2 |
| 20260505214055 | 15 | 234 | 8.0 | 17.7 | 0.86 | 0.86 | 0.86 | 91 | 1008.2 |
| 20260505213602 | 15 | 253 | 3.2 | 17.7 | 0.86 | 0.86 | 0.86 | 91 | 1008.1 |
| 20260505213100 | 15 | 244 | 6.4 | 17.7 | 0.84 | 0.84 | 0.84 | 90 | 1008.1 |
| 20260505212603 | 15 | 257 | 8.0 | 19.3 | 0.84 | 0.84 | 0.84 | 90 | 1008.1 |
| 20260505212056 | 15 | 302 | 8.0 | 19.3 | 0.84 | 0.84 | 0.84 | 90 | 1008.1 |
| 20260505211613 | 15 | 254 | 6.4 | 27.4 | 0.81 | 0.81 | 0.81 | 89 | 1008.0 |
| 20260505211056 | 15 | 264 | 12.9 | 27.4 | 0.81 | 0.81 | 0.81 | 88 | 1008.0 |
| 20260505210557 | 15 | 263 | 12.9 | 20.9 | 0.76 | 0.76 | 0.76 | 87 | 1008.0 |
| 20260505210058 | 15 | 273 | 11.3 | 27.4 | 0.69 | 0.69 | 0.69 | 85 | 1008.1 |
| 20260505205557 | 16 | 232 | 14.5 | 38.6 | 0.66 | 0.66 | 0.66 | 82 | 1008.1 |
| 20260505205100 | 17 | 267 | 22.5 | 38.6 | 0.58 | 0.58 | 0.58 | 77 | 1008.0 |
| 20260505204602 | 19 | 290 | 17.7 | 35.4 | 0.00 | 0.00 | 0.00 | 70 | 1007.7 |
| 20260505204056 | 20 | 247 | 14.5 | 35.4 | 0.00 | 0.00 | 0.00 | 67 | 1007.3 |
| 20260505203556 | 20 | 230 | 20.9 | 35.4 | 0.00 | 0.00 | 0.00 | 64 | 1007.1 |
| 20260505203059 | 20 | 234 | 16.1 | 32.2 | 0.00 | 0.00 | 0.00 | 65 | 1007.2 |
| 20260505202559 | 20 | 231 | 14.5 | 32.2 | 0.00 | 0.00 | 0.00 | 64 | 1007.3 |
| 20260505202100 | 20 | 217 | 12.9 | 30.6 | 0.00 | 0.00 | 0.00 | 64 | 1007.3 |
| 20260505201609 | 20 | 190 | 12.9 | 32.2 | 0.00 | 0.00 | 0.00 | 64 | 1007.2 |
| 20260505201056 | 20 | 190 | 12.9 | 32.2 | 0.00 | 0.00 | 0.00 | 64 | 1007.5 |
| 20260505200557 | 20 | 220 | 16.1 | 33.8 | 0.00 | 0.00 | 0.00 | 64 | 1007.5 |
| 20260505200105 | 20 | 212 | 16.1 | 33.8 | 0.00 | 0.00 | 0.00 | 64 | 1007.5 |
| 20260505195555 | 20 | 215 | 14.5 | 32.2 | 0.00 | 0.00 | 0.00 | 63 | 1007.5 |
| 20260505195056 | 20 | 212 | 12.9 | 32.2 | 0.00 | 0.00 | 0.00 | 64 | 1007.6 |
| 20260505194606 | 20 | 217 | 16.1 | 32.2 | 0.00 | 0.00 | 0.00 | 64 | 1007.7 |
| 20260505194057 | 20 | 184 | 11.3 | 30.6 | 0.00 | 0.00 | 0.00 | 65 | 1007.8 |
| 20260505193556 | 20 | 202 | 17.7 | 30.6 | 0.00 | 0.00 | 0.00 | 64 | 1008.1 |
| 20260505193056 | 20 | 233 | 16.1 | 32.2 | 0.00 | 0.00 | 0.00 | 64 | 1008.0 |
| 20260505192556 | 20 | 234 | 19.3 | 32.2 | 0.00 | 0.00 | 0.00 | 64 | 1008.0 |
| 20260505192102 | 20 | 229 | 9.7 | 37.0 | 0.00 | 0.00 | 0.00 | 65 | 1008.1 |
| 20260505191557 | 20 | 235 | 16.1 | 40.2 | 0.00 | 0.00 | 0.00 | 64 | 1008.1 |
| 20260505191056 | 20 | 213 | 20.9 | 40.2 | 0.00 | 0.00 | 0.00 | 63 | 1008.2 |
| 20260505190601 | 20 | 267 | 17.7 | 40.2 | 0.00 | 0.00 | 0.00 | 64 | 1008.2 |
| 20260505190107 | 20 | 217 | 14.5 | 35.4 | 0.00 | 0.00 | 0.00 | 63 | 1008.5 |
| 20260505185601 | 20 | 252 | 17.7 | 35.4 | 0.00 | 0.00 | 0.00 | 64 | 1008.3 |
| 20260505185058 | 20 | 221 | 17.7 | 33.8 | 0.00 | 0.00 | 0.00 | 63 | 1008.5 |
| 20260505184600 | 20 | 260 | 20.9 | 35.4 | 0.00 | 0.00 | 0.00 | 64 | 1008.6 |
| 20260505184101 | 20 | 227 | 19.3 | 35.4 | 0.00 | 0.00 | 0.00 | 63 | 1008.7 |
| 20260505183558 | 19 | 263 | 14.5 | 32.2 | 0.00 | 0.00 | 0.00 | 64 | 1008.7 |
| 20260505183101 | 19 | 182 | 14.5 | 32.2 | 0.00 | 0.00 | 0.00 | 65 | 1008.9 |
| 20260505182600 | 19 | 262 | 16.1 | 32.2 | 0.00 | 0.00 | 0.00 | 65 | 1009.1 |
| 20260505182100 | 19 | 225 | 12.9 | 35.4 | 0.00 | 0.00 | 0.00 | 65 | 1009.1 |
| 20260505181600 | 19 | 244 | 17.7 | 35.4 | 0.00 | 0.00 | 0.00 | 64 | 1009.1 |
| 20260505181100 | 19 | 273 | 19.3 | 38.6 | 0.00 | 0.00 | 0.00 | 64 | 1008.9 |
| 20260505180600 | 19 | 260 | 20.9 | 38.6 | 0.00 | 0.00 | 0.00 | 64 | 1008.9 |
| 20260505175602 | 19 | 237 | 14.5 | 32.2 | 0.00 | 0.00 | 0.00 | 65 | 1008.9 |
| 20260505175100 | 19 | 261 | 14.5 | 29.0 | 0.00 | 0.00 | 0.00 | 65 | 1009.0 |
| 20260505174559 | 19 | 263 | 12.9 | 25.7 | 0.00 | 0.00 | 0.00 | 65 | 1009.0 |
| 20260505174100 | 19 | 233 | 11.3 | 25.7 | 0.00 | 0.00 | 0.00 | 65 | 1008.9 |
| 20260505173600 | 19 | 248 | 11.3 | 24.1 | 0.00 | 0.00 | 0.00 | 66 | 1008.9 |
| 20260505173101 | 19 | 252 | 11.3 | 24.1 | 0.00 | 0.00 | 0.00 | 66 | 1009.0 |
| 20260505172558 | 19 | 253 | 9.7 | 24.1 | 0.00 | 0.00 | 0.00 | 66 | 1008.8 |
| 20260505172100 | 20 | 291 | 9.7 | 25.7 | 0.00 | 0.00 | 0.00 | 65 | 1008.9 |
| 20260505171559 | 20 | 277 | 8.0 | 32.2 | 0.00 | 0.00 | 0.00 | 65 | 1009.0 |
| 20260505171104 | 20 | 257 | 16.1 | 33.8 | 0.00 | 0.00 | 0.00 | 64 | 1009.1 |
| 20260505170600 | 20 | 253 | 12.9 | 33.8 | 0.00 | 0.00 | 0.00 | 64 | 1009.1 |
| 20260505170105 | 20 | 267 | 14.5 | 27.4 | 0.00 | 0.00 | 0.00 | 63 | 1009.1 |
| 20260505165600 | 20 | 257 | 9.7 | 35.4 | 0.00 | 0.00 | 0.00 | 64 | 1009.1 |
| 20260505165104 | 20 | 250 | 16.1 | 35.4 | 0.00 | 0.00 | 0.00 | 63 | 1009.1 |
| 20260505164633 | 20 | 242 | 14.5 | 33.8 | 0.00 | 0.00 | 0.00 | 63 | 1009.1 |
| 20260505164057 | 20 | 252 | 12.9 | 30.6 | 0.00 | 0.00 | 0.00 | 63 | 1009.1 |
| 20260505163600 | 20 | 245 | 14.5 | 30.6 | 0.00 | 0.00 | 0.00 | 63 | 1009.0 |
| 20260505163059 | 21 | 263 | 11.3 | 27.4 | 0.00 | 0.00 | 0.00 | 64 | 1008.9 |
| 20260505162600 | 20 | 249 | 12.9 | 25.7 | 0.00 | 0.00 | 0.00 | 64 | 1008.9 |
| 20260505162100 | 20 | 275 | 12.9 | 30.6 | 0.00 | 0.00 | 0.00 | 64 | 1008.9 |
| 20260505161600 | 20 | 271 | 16.1 | 30.6 | 0.00 | 0.00 | 0.00 | 63 | 1008.9 |
| 20260505161101 | 20 | 221 | 14.5 | 30.6 | 0.00 | 0.00 | 0.00 | 64 | 1008.9 |
| 20260505160601 | 20 | 240 | 12.9 | 38.6 | 0.00 | 0.00 | 0.00 | 64 | 1009.0 |
| 20260505160109 | 20 | 253 | 16.1 | 38.6 | 0.00 | 0.00 | 0.00 | 63 | 1009.0 |
| 20260505153100 | 20 | 239 | 17.7 | 33.8 | 0.00 | 0.00 | 0.00 | 65 | 1008.9 |
| 20260505152600 | 20 | 279 | 17.7 | 33.8 | 0.00 | 0.00 | 0.00 | 65 | 1008.9 |
| 20260505152101 | 19 | 249 | 17.7 | 29.0 | 0.00 | 0.00 | 0.00 | 67 | 1008.8 |
| 20260505151606 | 18 | 288 | 11.3 | 33.8 | 0.00 | 0.00 | 0.00 | 69 | 1008.8 |
| 20260505151100 | 18 | 244 | 14.5 | 33.8 | 0.00 | 0.00 | 0.00 | 68 | 1008.8 |
| 20260505150602 | 18 | 270 | 16.1 | 32.2 | 0.00 | 0.00 | 0.00 | 68 | 1008.8 |
| 20260505140557 | 16 | 244 | 12.9 | 32.2 | 0.00 | 0.00 | 0.00 | 80 | 1008.1 |
| 20260505140117 | 15 | 225 | 9.7 | 32.2 | 0.00 | 0.00 | 0.00 | 80 | 1008.2 |
| 20260505130103 | 14 | 265 | 9.7 | 22.5 | 0.00 | 0.00 | 0.00 | 84 | 1008.1 |
| 20260505124605 | 14 | 242 | 12.9 | 24.1 | 0.00 | 0.00 | 0.00 | 84 | 1008.1 |
| 20260505124057 | 14 | 231 | 8.0 | 24.1 | 0.00 | 0.00 | 0.00 | 85 | 1008.2 |
| 20260505123559 | 14 | 248 | 12.9 | 29.0 | 0.00 | 0.00 | 0.00 | 85 | 1008.3 |
| 20260505123100 | 14 | 218 | 9.7 | 30.6 | 0.00 | 0.00 | 0.00 | 85 | 1008.2 |
| 20260505122559 | 13 | 258 | 14.5 | 30.6 | 0.00 | 0.00 | 0.00 | 85 | 1008.1 |
| 20260505122057 | 13 | 192 | 11.3 | 24.1 | 0.00 | 0.00 | 0.00 | 85 | 1007.9 |
| 20260505121602 | 13 | 218 | 11.3 | 24.1 | 0.00 | 0.00 | 0.00 | 86 | 1007.9 |
| 20260505121057 | 13 | 221 | 11.3 | 24.1 | 0.00 | 0.00 | 0.00 | 86 | 1008.0 |
| 20260505120559 | 13 | 234 | 6.4 | 24.1 | 0.00 | 0.00 | 0.00 | 87 | 1007.8 |
| 20260505120115 | 13 | 188 | 11.3 | 25.7 | 0.00 | 0.00 | 0.00 | 87 | 1007.6 |
| 20260505115600 | 13 | 178 | 9.7 | 25.7 | 0.00 | 0.00 | 0.00 | 87 | 1007.3 |
| 20260505115100 | 13 | 237 | 12.9 | 25.7 | 0.00 | 0.00 | 0.00 | 87 | 1007.0 |
| 20260505114602 | 13 | 182 | 11.3 | 22.5 | 0.00 | 0.00 | 0.00 | 87 | 1006.8 |
| 20260505114100 | 13 | 190 | 9.7 | 19.3 | 0.00 | 0.00 | 0.00 | 87 | 1006.8 |
| 20260505113559 | 13 | 211 | 9.7 | 19.3 | 0.00 | 0.00 | 0.00 | 87 | 1007.1 |
| 20260505113109 | 13 | 207 | 8.0 | 16.1 | 0.00 | 0.00 | 0.00 | 86 | 1007.3 |
| 20260505112600 | 13 | 191 | 4.8 | 14.5 | 0.00 | 0.00 | 0.00 | 86 | 1007.3 |
| 20260505112100 | 13 | 215 | 6.4 | 14.5 | 0.00 | 0.00 | 0.00 | 86 | 1007.2 |
| 20260505111559 | 13 | 197 | 6.4 | 19.3 | 0.00 | 0.00 | 0.00 | 86 | 1007.5 |
| 20260505111057 | 13 | 211 | 4.8 | 19.3 | 0.00 | 0.00 | 0.00 | 85 | 1007.4 |
| 20260505110557 | 13 | 229 | 8.0 | 14.5 | 0.00 | 0.00 | 0.00 | 85 | 1007.6 |
| 20260505110109 | 13 | 243 | 6.4 | 16.1 | 0.00 | 0.00 | 0.00 | 85 | 1007.5 |
| 20260505102100 | 14 | 267 | 6.4 | 16.1 | 0.00 | 0.00 | 0.00 | 81 | 1007.7 |
| 20260505101600 | 14 | 280 | 6.4 | 19.3 | 0.00 | 0.00 | 0.00 | 80 | 1007.8 |
| 20260505101100 | 15 | 269 | 6.4 | 19.3 | 0.00 | 0.00 | 0.00 | 79 | 1007.9 |
| 20260505100600 | 15 | 239 | 9.7 | 24.1 | 0.00 | 0.00 | 0.00 | 77 | 1008.0 |
| 20260505100100 | 15 | 279 | 11.3 | 24.1 | 0.00 | 0.00 | 0.00 | 76 | 1007.9 |
| 20260505095600 | 15 | 239 | 4.8 | 14.5 | 0.00 | 0.00 | 0.00 | 75 | 1007.9 |
| 20260505095059 | 15 | 252 | 4.8 | 14.5 | 0.00 | 0.00 | 0.00 | 75 | 1007.8 |
| 20260505094603 | 15 | 258 | 4.8 | 11.3 | 0.00 | 0.00 | 0.00 | 74 | 1007.8 |
| 20260505094059 | 15 | 257 | 3.2 | 9.7 | 0.00 | 0.00 | 0.00 | 74 | 1007.7 |
| 20260505093556 | 15 | 277 | 3.2 | 11.3 | 0.00 | 0.00 | 0.00 | 74 | 1007.7 |
| 20260505093103 | 15 | 280 | 3.2 | 11.3 | 0.00 | 0.00 | 0.00 | 73 | 1007.8 |
| 20260505092558 | 15 | 267 | 3.2 | 11.3 | 0.00 | 0.00 | 0.00 | 73 | 1007.6 |
| 20260505092056 | 15 | 252 | 3.2 | 11.3 | 0.00 | 0.00 | 0.00 | 73 | 1007.7 |
| 20260505091614 | 16 | 271 | 4.8 | 11.3 | 0.00 | 0.00 | 0.00 | 72 | 1007.6 |
| 20260505091059 | 16 | 275 | 4.8 | 12.9 | 0.00 | 0.00 | 0.00 | 72 | 1007.5 |
| 20260505090600 | 16 | 269 | 3.2 | 16.1 | 0.00 | 0.00 | 0.00 | 72 | 1007.1 |
| 20260505090100 | 16 | 257 | 6.4 | 19.3 | 0.00 | 0.00 | 0.00 | 71 | 1007.3 |
| 20260505085600 | 16 | 252 | 9.7 | 24.1 | 0.00 | 0.00 | 0.00 | 71 | 1007.2 |
| 20260505085100 | 16 | 317 | 9.7 | 24.1 | 0.00 | 0.00 | 0.00 | 71 | 1007.3 |
| 20260505084559 | 16 | 292 | 9.7 | 24.1 | 0.00 | 0.00 | 0.00 | 70 | 1007.3 |
| 20260505084100 | 16 | 259 | 11.3 | 22.5 | 0.00 | 0.00 | 0.00 | 70 | 1007.4 |
| 20260505083601 | 16 | 232 | 9.7 | 25.7 | 0.00 | 0.00 | 0.00 | 69 | 1007.2 |
| 20260505083058 | 16 | 290 | 11.3 | 25.7 | 0.00 | 0.00 | 0.00 | 69 | 1007.3 |
| 20260505082600 | 16 | 281 | 11.3 | 22.5 | 0.00 | 0.00 | 0.00 | 69 | 1007.0 |
| 20260505082057 | 16 | 272 | 6.4 | 22.5 | 0.00 | 0.00 | 0.00 | 69 | 1007.0 |
| 20260505081600 | 16 | 268 | 9.7 | 22.5 | 0.00 | 0.00 | 0.00 | 68 | 1006.8 |
| 20260505081100 | 16 | 282 | 8.0 | 29.0 | 0.00 | 0.00 | 0.00 | 68 | 1006.7 |
| 20260505080600 | 16 | 227 | 12.9 | 29.0 | 0.00 | 0.00 | 0.00 | 67 | 1006.6 |
| 20260505080106 | 17 | 235 | 16.1 | 29.0 | 0.00 | 0.00 | 0.00 | 67 | 1006.5 |
| 20260505075556 | 17 | 235 | 14.5 | 27.4 | 0.00 | 0.00 | 0.00 | 67 | 1006.1 |
| 20260505075059 | 17 | 221 | 12.9 | 25.7 | 0.00 | 0.00 | 0.00 | 66 | 1006.2 |
| 20260505074559 | 17 | 238 | 12.9 | 25.7 | 0.00 | 0.00 | 0.00 | 66 | 1006.0 |
| 20260505074059 | 17 | 275 | 12.9 | 29.0 | 0.00 | 0.00 | 0.00 | 66 | 1006.0 |
| 20260505073600 | 17 | 186 | 14.5 | 29.0 | 0.00 | 0.00 | 0.00 | 66 | 1005.9 |
| 20260505073105 | 17 | 190 | 14.5 | 27.4 | 0.00 | 0.00 | 0.00 | 66 | 1005.8 |
| 20260505072600 | 17 | 200 | 14.5 | 29.0 | 0.00 | 0.00 | 0.00 | 66 | 1005.9 |
| 20260505072059 | 17 | 211 | 11.3 | 29.0 | 0.00 | 0.00 | 0.00 | 66 | 1005.9 |
| 20260505071558 | 17 | 195 | 12.9 | 29.0 | 0.00 | 0.00 | 0.00 | 66 | 1005.9 |
| 20260505071100 | 17 | 205 | 14.5 | 29.0 | 0.00 | 0.00 | 0.00 | 66 | 1005.9 |
| 20260505070600 | 17 | 202 | 12.9 | 29.0 | 0.00 | 0.00 | 0.00 | 66 | 1005.9 |
| 20260505070058 | 17 | 232 | 12.9 | 29.0 | 0.00 | 0.00 | 0.00 | 67 | 1005.9 |
| 20260505065556 | 17 | 217 | 12.9 | 29.0 | 0.00 | 0.00 | 0.00 | 67 | 1005.9 |
| 20260505065059 | 17 | 209 | 14.5 | 29.0 | 0.00 | 0.00 | 0.00 | 66 | 1005.8 |
| 20260505064601 | 17 | 221 | 14.5 | 25.7 | 0.00 | 0.00 | 0.00 | 67 | 1005.9 |
| 20260505064059 | 17 | 189 | 16.1 | 29.0 | 0.00 | 0.00 | 0.00 | 66 | 1005.9 |
| 20260505063556 | 17 | 211 | 11.3 | 29.0 | 0.00 | 0.00 | 0.00 | 66 | 1005.9 |
| 20260505063114 | 17 | 216 | 9.7 | 22.5 | 0.00 | 0.00 | 0.00 | 67 | 1005.8 |
| 20260505062600 | 17 | 192 | 14.5 | 22.5 | 0.00 | 0.00 | 0.00 | 67 | 1005.8 |
| 20260505062100 | 17 | 215 | 9.7 | 22.5 | 0.00 | 0.00 | 0.00 | 67 | 1005.8 |
| 20260505061558 | 17 | 209 | 8.0 | 22.5 | 0.00 | 0.00 | 0.00 | 67 | 1005.6 |
| 20260505061056 | 17 | 234 | 11.3 | 25.7 | 0.00 | 0.00 | 0.00 | 67 | 1005.7 |
| 20260505060600 | 17 | 227 | 9.7 | 25.7 | 0.00 | 0.00 | 0.00 | 67 | 1005.6 |
| 20260505060059 | 17 | 200 | 11.3 | 25.7 | 0.00 | 0.00 | 0.00 | 67 | 1005.7 |
| 20260505055600 | 17 | 205 | 9.7 | 22.5 | 0.00 | 0.00 | 0.00 | 67 | 1005.6 |
| 20260505055057 | 17 | 231 | 8.0 | 22.5 | 0.00 | 0.00 | 0.00 | 67 | 1005.7 |
| 20260505054609 | 17 | 225 | 9.7 | 22.5 | 0.00 | 0.00 | 0.00 | 67 | 1005.7 |
| 20260505054103 | 17 | 206 | 9.7 | 19.3 | 0.00 | 0.00 | 0.00 | 67 | 1005.7 |
| 20260505053556 | 17 | 211 | 8.0 | 17.7 | 0.00 | 0.00 | 0.00 | 67 | 1005.9 |
| 20260505053103 | 17 | 183 | 8.0 | 17.7 | 0.00 | 0.00 | 0.00 | 67 | 1005.9 |
| 20260505052556 | 17 | 193 | 6.4 | 16.1 | 0.00 | 0.00 | 0.00 | 67 | 1005.9 |
| 20260505052059 | 17 | 186 | 6.4 | 19.3 | 0.00 | 0.00 | 0.00 | 66 | 1005.9 |
| 20260505051559 | 17 | 242 | 9.7 | 19.3 | 0.00 | 0.00 | 0.00 | 66 | 1006.1 |
| 20260505051100 | 18 | 192 | 6.4 | 19.3 | 0.00 | 0.00 | 0.00 | 66 | 1006.0 |
| 20260505050600 | 18 | 165 | 6.4 | 19.3 | 0.00 | 0.00 | 0.00 | 65 | 1006.0 |
| 20260505041600 | 18 | 221 | 9.7 | 19.3 | 0.00 | 0.00 | 0.00 | 65 | 1006.1 |
| 20260505041059 | 18 | 198 | 9.7 | 19.3 | 0.00 | 0.00 | 0.00 | 65 | 1006.1 |
| 20260505040600 | 18 | 209 | 9.7 | 22.5 | 0.00 | 0.00 | 0.00 | 65 | 1006.3 |
| 20260505040058 | 18 | 233 | 9.7 | 22.5 | 0.00 | 0.00 | 0.00 | 65 | 1006.4 |
| 20260505035559 | 18 | 188 | 8.0 | 19.3 | 0.00 | 0.00 | 0.00 | 65 | 1006.4 |
| 20260505035102 | 18 | 215 | 11.3 | 24.1 | 0.00 | 0.00 | 0.00 | 65 | 1006.3 |
| 20260505034558 | 18 | 226 | 9.7 | 24.1 | 0.00 | 0.00 | 0.00 | 64 | 1006.4 |
| 20260505034059 | 18 | 237 | 9.7 | 24.1 | 0.00 | 0.00 | 0.00 | 65 | 1006.4 |
| 20260505033602 | 18 | 219 | 8.0 | 24.1 | 0.00 | 0.00 | 0.00 | 64 | 1006.3 |
| 20260505033059 | 18 | 182 | 11.3 | 25.7 | 0.00 | 0.00 | 0.00 | 64 | 1006.2 |
| 20260505032559 | 18 | 208 | 12.9 | 25.7 | 0.00 | 0.00 | 0.00 | 64 | 1006.4 |
| 20260505032055 | 18 | 208 | 11.3 | 24.1 | 0.00 | 0.00 | 0.00 | 65 | 1006.2 |
| 20260505031607 | 18 | 198 | 11.3 | 20.9 | 0.00 | 0.00 | 0.00 | 65 | 1006.2 |
| 20260505031057 | 17 | 215 | 6.4 | 19.3 | 0.00 | 0.00 | 0.00 | 66 | 1006.1 |
| 20260505030600 | 17 | 219 | 6.4 | 14.5 | 0.00 | 0.00 | 0.00 | 66 | 1006.1 |
| 20260505030103 | 17 | 196 | 6.4 | 12.9 | 0.00 | 0.00 | 0.00 | 66 | 1006.2 |
| 20260505025557 | 17 | 196 | 4.8 | 12.9 | 0.00 | 0.00 | 0.00 | 66 | 1006.1 |
| 20260505025100 | 17 | 200 | 4.8 | 12.9 | 0.00 | 0.00 | 0.00 | 66 | 1006.1 |
| 20260505024606 | 17 | 192 | 4.8 | 12.9 | 0.00 | 0.00 | 0.00 | 66 | 1006.1 |
| 20260505024059 | 17 | 224 | 4.8 | 11.3 | 0.00 | 0.00 | 0.00 | 66 | 1006.0 |
| 20260505023556 | 17 | 188 | 3.2 | 9.7 | 0.00 | 0.00 | 0.00 | 65 | 1006.1 |
| 20260505023059 | 17 | 202 | 4.8 | 11.3 | 0.00 | 0.00 | 0.00 | 65 | 1006.0 |
| 20260505022556 | 17 | 212 | 4.8 | 11.3 | 0.00 | 0.00 | 0.00 | 64 | 1005.9 |
| 20260505022059 | 17 | 187 | 4.8 | 9.7 | 0.00 | 0.00 | 0.00 | 64 | 1006.0 |
| 20260505021600 | 17 | 203 | 4.8 | 12.9 | 0.00 | 0.00 | 0.00 | 64 | 1005.9 |
| 20260505021056 | 18 | 201 | 6.4 | 16.1 | 0.00 | 0.00 | 0.00 | 63 | 1006.0 |
| 20260505020559 | 18 | 195 | 6.4 | 16.1 | 0.00 | 0.00 | 0.00 | 63 | 1005.9 |
| 20260505020057 | 18 | 212 | 4.8 | 11.3 | 0.00 | 0.00 | 0.00 | 64 | 1005.9 |
| 20260505015600 | 18 | 211 | 4.8 | 11.3 | 0.00 | 0.03 | 0.00 | 64 | 1005.9 |
| 20260505015059 | 18 | 214 | 4.8 | 14.5 | 0.00 | 0.03 | 0.00 | 64 | 1005.9 |
| 20260505014610 | 18 | 202 | 4.8 | 14.5 | 0.00 | 0.03 | 0.00 | 64 | 1005.9 |
| 20260505014057 | 18 | 360 | 6.4 | 14.5 | 0.00 | 0.03 | 0.00 | 64 | 1005.9 |
| 20260505013556 | 18 | 360 | 4.8 | 14.5 | 0.00 | 0.03 | 0.00 | 65 | 1005.9 |
| 20260505013059 | 18 | 360 | 4.8 | 14.5 | 0.00 | 0.03 | 0.00 | 66 | 1005.8 |
| 20260505012600 | 18 | 360 | 4.8 | 9.7 | 0.00 | 0.03 | 0.00 | 67 | 1005.7 |
| 20260505012059 | 18 | 360 | 4.8 | 9.7 | 0.00 | 0.03 | 0.00 | 67 | 1005.6 |
| 20260505011608 | 18 | 360 | 4.8 | 9.7 | 0.00 | 0.03 | 0.00 | 67 | 1005.6 |
| 20260505011057 | 18 | 360 | 6.4 | 9.7 | 0.00 | 0.03 | 0.00 | 67 | 1005.4 |
| 20260505010559 | 18 | 360 | 4.8 | 9.7 | 0.00 | 0.03 | 0.00 | 66 | 1005.4 |
| 20260505010100 | 18 | 360 | 3.2 | 9.7 | 0.00 | 0.03 | 0.00 | 66 | 1005.5 |
| 20260505005559 | 18 | 200 | 4.8 | 9.7 | 0.00 | 0.08 | 0.00 | 65 | 1005.4 |
| 20260505005102 | 18 | 209 | 4.8 | 9.7 | 0.00 | 0.08 | 0.00 | 65 | 1005.4 |